Location: Biharia
(46.4333°N, 22.8000°E)
Time: 20:25:22
(UTC+00:00)

Resurs 01 Rocket - Pass Details

Date: 16 October 2021
Orbit: 635 x 643 km, 97.9° (Epoch: 29 November)

Event Time Altitude Azimuth Distance (km) Brightness Sun altitude
Exits shadow 18:26:22 12° 5° (N) 1,902 4.2 -29.1°
Drops below altitude 10° 18:26:43 10° 3° (N) 2,035 4.4 -29.2°
Sets 18:29:04 0° 355° (N) 2,950 5.3 -29.5°
